Tracking 25963 objects as of 12-Aug-2022
HD Live streaming from Space Station
objects crossing your sky now

STARLINK-4117

Track STARLINK-4117 now!
10-day predictions
STARLINK-4117 is classified as:


NORAD ID: 53169
Int'l Code: 2022-083AP
Perigee: 354.4 km
Apogee: 359.5 km
Inclination: 53.2 °
Period: 91.5 minutes
Semi major axis: 6727 km
RCS: Unknown
Launch date: July 17, 2022
Source: United States (US)
Launch site: AIR FORCE EASTERN TEST RANGE (AFETR)
aabbcc
Your satellite tracking list
Your tracking list is empty




NASA's NSSDC Master Catalog

Two Line Element Set (TLE):
1 53169U 22083AP  22224.58334491  .00065373  00000-0  46702-3 0  9994
2 53169  53.2168 278.1775 0003817   8.2318 160.2979 15.73171515  1303
Source of the keplerian elements: AFSPC